Location: Alphen aan den Rijn
(52.1277°N, 4.6689°E)
Time: 11:25:56
(UTC+02:00)

ISS - Pass Details

Date: 30 September 2017
Orbit: 401 x 408 km, 51.6° (Epoch: 19 October)

Event Time Altitude Azimuth Distance (km) Brightness Sun altitude
Rises 20:06:56 0° 227° (SW) 2,316 0.7 -7.9°
Reaches altitude 10° 20:09:08 10° 217° (SW) 1,461 -0.6 -8.3°
Maximum altitude 20:12:05 32° 152° (SSE) 731 -2.8 -8.7°
Enters shadow 20:14:34 13° 92° (E) 1,294 -2.0 -9.1°
